Date String (YYYY-MM-DD hh:mm:ss) UTC,Instrument flags,Ambient pressure (hPa),Sample flow (lpm),Bypass flow (lpm),Sample temperature (°C),Ambient temperature (°C),ASC tube jacket temperature (°C),LED temperature (°C),Box temperature (°C),Sample RH (%),Span deviation,Mass concentration (μg/m³),Mass concentration (μg/m³),Mass concentration (μg/m³)
DateTimeUTC,F1_M11,P_M11,Q1_M11,Q2_M11,T1_M11,T2_M11,T3_M11,T4_M11,T5_M11,U1_M11,ZSPAN_M11,X0_M11,X2_M11,X1_M11
2021-11-28 23:00:00,,0829.5,4.99,0.00,30.2,29.5,00.0,39.3,31.9,09.9,0000.0,0003.60,0000.64,0000.38
2021-11-28 23:01:00,,0829.5,5.01,0.00,30.3,29.4,00.0,39.3,31.9,09.9,0000.0,0003.58,0000.64,0000.40
2021-11-28 23:02:00,,0829.5,5.00,0.00,30.3,29.4,00.0,39.3,31.9,09.9,0000.0,0003.53,0000.62,0000.41
2021-11-28 23:03:00,,0829.5,4.99,0.00,30.3,29.4,00.0,39.3,31.9,09.9,0000.0,0003.71,0000.68,0000.41
2021-11-28 23:04:00,,0829.5,5.00,0.00,30.3,29.5,00.0,39.3,31.9,09.9,0000.0,0003.72,0000.69,0000.42
2021-11-28 23:05:00,,0829.4,5.01,0.00,30.3,29.5,00.0,39.3,31.9,09.9,0000.0,0002.56,0000.69,0000.42
2021-11-28 23:06:00,,0829.3,4.98,0.00,30.3,29.5,00.0,39.3,31.9,09.9,0000.0,0002.47,0000.68,0000.43
2021-11-28 23:07:00,,0829.4,4.99,0.00,30.3,29.5,00.0,39.3,31.9,09.9,0000.0,0002.47,0000.67,0000.42
2021-11-28 23:08:00,,0829.5,5.01,0.00,30.3,29.5,00.0,39.3,31.9,09.9,0000.0,0002.57,0000.67,0000.41
2021-11-28 23:09:00,,0829.5,5.00,0.00,30.3,29.5,00.0,39.3,31.9,09.9,0000.0,0001.44,0000.67,0000.41
2021-11-28 23:10:00,,0829.5,4.99,0.00,30.3,29.5,00.0,39.3,31.9,09.9,0000.0,0001.39,0000.69,0000.42
2021-11-28 23:11:00,,0829.5,5.00,0.00,30.3,29.5,00.0,39.3,31.9,09.9,0000.0,0001.33,0000.68,0000.43
2021-11-28 23:12:00,,0829.5,5.00,0.00,30.3,29.5,00.0,39.3,31.9,09.9,0000.0,0003.30,0000.68,0000.43
2021-11-28 23:13:00,,0829.6,4.99,0.00,30.3,29.5,00.0,39.3,31.9,09.8,0000.0,0003.96,0000.69,0000.43
2021-11-28 23:14:00,,0829.5,5.00,0.00,30.3,29.5,00.0,39.3,32.0,09.8,0000.0,0004.43,0000.65,0000.43
2021-11-28 23:15:00,,0829.5,5.00,0.00,30.3,29.5,00.0,39.3,31.9,09.8,0000.0,0004.50,0000.64,0000.43
2021-11-28 23:16:00,,0829.5,4.99,0.00,30.3,29.5,00.0,39.3,31.9,09.8,0000.0,0004.51,0000.64,0000.44
2021-11-28 23:17:00,,0829.5,4.99,0.00,30.3,29.5,00.0,39.3,31.9,09.8,0000.0,0004.60,0000.64,0000.45
2021-11-28 23:18:00,,0829.5,5.00,0.00,30.3,29.5,00.0,39.3,31.9,09.8,0000.0,0005.23,0000.65,0000.47
2021-11-28 23:19:00,,0829.5,4.99,0.00,30.3,29.5,00.0,39.3,32.0,09.8,0000.0,0005.15,0000.65,0000.48
2021-11-28 23:20:00,,0829.6,5.01,0.00,30.3,29.5,00.0,39.3,31.9,09.8,0000.0,0005.25,0000.69,0000.50
2021-11-28 23:21:00,,0829.6,4.99,0.00,30.3,29.5,00.0,39.3,31.9,09.8,0000.0,0005.18,0000.67,0000.51
2021-11-28 23:22:00,,0829.5,5.00,0.00,30.3,29.5,00.0,39.3,31.9,09.8,0000.0,0005.39,0000.66,0000.49
2021-11-28 23:23:00,,0829.6,5.00,0.00,30.3,29.5,00.0,39.3,31.9,09.8,0000.0,0003.63,0000.63,0000.47
2021-11-28 23:24:00,,0829.6,4.99,0.00,30.3,29.5,00.0,39.3,31.9,09.8,0000.0,0003.02,0000.61,0000.46
2021-11-28 23:25:00,,0829.6,5.00,0.00,30.3,29.4,00.0,39.3,31.9,09.8,0000.0,0002.43,0000.59,0000.46
2021-11-28 23:26:00,,0829.6,5.01,0.00,30.3,29.4,00.0,39.3,31.9,09.7,0000.0,0003.32,0000.58,0000.45
2021-11-28 23:27:00,,0829.7,5.00,0.00,30.3,29.4,00.0,39.3,31.9,09.7,0000.0,0003.34,0000.57,0000.43
2021-11-28 23:28:00,,0829.6,5.00,0.00,30.3,29.4,00.0,39.3,31.9,09.7,0000.0,0003.29,0000.58,0000.42
2021-11-28 23:29:00,,0829.6,5.00,0.00,30.3,29.4,00.0,39.3,31.9,09.7,0000.0,0002.67,0000.59,0000.42
2021-11-28 23:30:00,,0829.6,5.00,0.00,30.3,29.4,00.0,39.3,31.9,09.7,0000.0,0002.73,0000.60,0000.41
2021-11-28 23:31:00,,0829.7,4.99,0.00,30.3,29.4,00.0,39.3,31.9,09.7,0000.0,0002.58,0000.55,0000.40
2021-11-28 23:32:00,,0829.9,5.00,0.00,30.3,29.4,00.0,39.3,31.9,09.8,0000.0,0002.57,0000.55,0000.40
2021-11-28 23:33:00,,0829.7,5.00,0.00,30.3,29.4,00.0,39.3,31.9,09.8,0000.0,0002.72,0000.58,0000.40
2021-11-28 23:34:00,,0829.7,5.00,0.00,30.3,29.4,00.0,39.3,31.9,09.8,0000.0,0002.22,0000.60,0000.41
2021-11-28 23:35:00,,0829.8,5.00,0.00,30.3,29.4,00.0,39.3,31.9,09.7,0000.0,0002.24,0000.60,0000.41
2021-11-28 23:36:00,,0829.7,5.01,0.00,30.2,29.4,00.0,39.3,31.9,09.7,0000.0,0002.26,0000.61,0000.41
2021-11-28 23:37:00,,0829.9,5.00,0.00,30.2,29.3,00.0,39.3,31.8,09.8,0000.0,0001.46,0000.63,0000.42
2021-11-28 23:38:00,,0829.6,5.00,0.00,30.2,29.3,00.0,39.3,31.8,09.8,0000.0,0001.33,0000.66,0000.42
2021-11-28 23:39:00,,0829.5,5.01,0.00,30.2,29.3,00.0,39.3,31.8,09.8,0000.0,0001.46,0000.64,0000.42
2021-11-28 23:40:00,,0829.6,4.98,0.00,30.2,29.3,00.0,39.3,31.8,09.8,0000.0,0001.53,0000.65,0000.42
2021-11-28 23:41:00,,0829.5,5.01,0.00,30.1,29.2,00.0,39.3,31.8,09.8,0000.0,0001.51,0000.64,0000.42
2021-11-28 23:42:00,,0829.6,5.00,0.00,30.1,29.2,00.0,39.2,31.8,09.8,0000.0,0001.57,0000.66,0000.41
2021-11-28 23:43:00,,0829.6,5.00,0.00,30.1,29.2,00.0,39.2,31.7,09.8,0000.0,0001.54,0000.64,0000.41
2021-11-28 23:44:00,,0829.6,4.98,0.00,30.1,29.2,00.0,39.2,31.7,09.8,0000.0,0001.41,0000.63,0000.41
2021-11-28 23:45:00,,0829.5,5.02,0.00,30.0,29.1,00.0,39.2,31.7,09.8,0000.0,0001.47,0000.64,0000.41
2021-11-28 23:46:00,,0829.6,4.99,0.00,30.0,29.1,00.0,39.2,31.6,09.8,0000.0,0001.48,0000.63,0000.40
2021-11-28 23:47:00,,0829.5,4.99,0.00,30.0,29.1,00.0,39.2,31.6,09.9,0000.0,0001.45,0000.62,0000.39
2021-11-28 23:48:00,,0829.5,5.01,0.00,30.0,29.1,00.0,39.1,31.6,09.9,0000.0,0001.44,0000.61,0000.39
2021-11-28 23:49:00,,0829.6,5.01,0.00,29.9,29.0,00.0,39.1,31.6,09.9,0000.0,0001.35,0000.59,0000.39
2021-11-28 23:50:00,,0829.6,4.99,0.00,29.9,29.0,00.0,39.1,31.5,09.9,0000.0,0001.15,0000.56,0000.38
2021-11-28 23:51:00,,0829.5,4.99,0.00,29.9,29.0,00.0,39.1,31.5,09.9,0000.0,0001.08,0000.56,0000.38
2021-11-28 23:52:00,,0829.5,5.00,0.00,29.9,29.0,00.0,39.1,31.5,09.9,0000.0,0001.26,0000.56,0000.37
2021-11-28 23:53:00,,0829.5,5.00,0.00,29.8,29.0,00.0,39.0,31.5,09.9,0000.0,0001.20,0000.54,0000.38
2021-11-28 23:54:00,,0829.6,5.00,0.00,29.8,29.0,00.0,39.0,31.5,09.9,0000.0,0001.22,0000.54,0000.38
2021-11-28 23:55:00,,0829.6,4.99,0.00,29.8,29.0,00.0,39.0,31.4,09.9,0000.0,0001.73,0000.54,0000.37
2021-11-28 23:56:00,,0829.6,5.00,0.00,29.8,29.0,00.0,39.0,31.4,09.9,0000.0,0001.79,0000.52,0000.37
2021-11-28 23:57:00,,0829.5,4.99,0.00,29.8,29.0,00.0,39.0,31.5,09.9,0000.0,0001.86,0000.55,0000.36
2021-11-28 23:58:00,,0829.6,5.00,0.00,29.8,29.0,00.0,39.0,31.5,09.9,0000.0,0002.01,0000.56,0000.36
2021-11-28 23:59:00,,0829.6,5.00,0.00,29.8,29.0,00.0,39.0,31.5,09.9,0000.0,0002.05,0000.57,0000.35
